Weather in Varlamovo

Russia / Chelyabinsk Oblast     54°37′26″N   60°40′15″E
temp.,
°C
wind,
m/s
gust,
m/s
humid.,
%
clouds,
%
prec.,
mm/h
press.,
hPa
HPBL,
m
15 may, sat
sat1523:00+20wnw11493 0.0 102312
02:00+18wnw33533 0.0 102336
05:00+16nnw346440 0.1 102448
08:00+22w224675 0.0 1024168
11:00+27w343227 0.0 10231299
14:00+29w45251 0.0 10222451
17:00+30wnw462254 0.0 10213346
20:00+23nnw4642100 0.0 102180
16 may, sun
sun1623:00+19sw510535 0.0 1023148
02:00+17w49605 0.0 1022133
05:00+17w33535 0.0 102229
08:00+23w34449 0.0 1023208
11:00+28wnw333145 0.0 10221064
14:00+30wsw34235 0.0 10212782
17:00+30sw45225 0.0 10203302
20:00+23nnw594539 0.0 1021233
17 may, mon
mon1723:00+19wnw22505 0.0 102111
02:00+18wnw33508 0.0 102120
05:00+18w22507 0.0 102112
08:00+23wsw34423 0.0 1021164
11:00+28wsw47285 0.0 10213135
14:00+30w572489 0.0 10193428
17:00+27nnw66295 0.1 1019928
20:00+22w355081 0.1 101982
18 may, tue
tue1823:00+19w355412 0.1 101966
02:00+18w465811 0.0 101974
05:00+18w4560100 0.0 101976
08:00+23wnw48475 0.1 1018360
11:00+27wnw693448 0.1 10172120
14:00+29nw79268 0.0 10173033
17:00+28nw692910 0.0 10163089
20:00+23nnw410455 0.0 1016219
19 may, wed
wed1923:00+18nw486153 0.1 1018105
02:00+16n476442 0.1 1019120
05:00+14nne3878100 0.1 1020199
08:00+17ne68650 0.0 1022621
11:00+20ne56520 0.0 10221220
14:00+22ne45430 0.0 10221620
17:00+22ene44390 0.0 10221628
20:00+19e34536 0.0 102258